Temp
-12 -13 -13 -13 -14 -14 -14 -14 -14 -14 -15 -16 -17 -16 -16 -17 -16 -16 -16 -15 -15 -15 -14 -14 -14 -14 -14 -14 -14 -14 -14 -14 -14 -14 -14 -14 -14 -14 -15 -15 -15 -15 -15
-12 -13 -14 -14 -14 -14 -15 -15 -16 -15 -16 -16 -16 -17 -17 -17 -17 -17 -16 -16 -15 -15 -15 -15 -14 -14 -15 -15 -15 -14 -15 -14 -14 -14 -14 -14 -14 -15 -15 -15 -15 -16 -16
-14 -14 -14 -14 -15 -15 -15 -15 -15 -15 -16 -16 -16 -17 -17 -18 -18 -17 -16 -16 -16 -15 -15 -15 -15 -15 -15 -15 -15 -15 -15 -15 -15 -15 -15 -15 -15 -15 -15 -16 -16 -16 -16
-15 -15 -15 -15 -15 -15 -15 -15 -15 -15 -16 -16 -17 -17 -18 -18 -18 -18 -17 -16 -17 -16 -15 -15 -15 -15 -15 -15 -15 -15 -15 -15 -15 -15 -15 -15 -15 -15 -16 -16 -17 -17 -17
-16 -15 -15 -15 -15 -15 -15 -15 -15 -16 -16 -16 -17 -17 -18 -18 -19 -19 -19 -18 -16 -17 -16 -15 -15 -15 -16 -15 -16 -16 -16 -15 -16 -16 -16 -16 -16 -16 -17 -17 -17 -18 -18
-16 -16 -16 -16 -16 -16 -16 -16 -16 -16 -16 -17 -17 -18 -18 -18 -19 -19 -19 -19 -18 -17 -17 -16 -16 -16 -16 -16 -16 -16 -16 -16 -16 -16 -16 -16 -17 -17 -17 -17 -18 -18 -19
-16 -16 -16 -17 -16 -16 -16 -16 -16 -16 -17 -17 -18 -18 -18 -18 -18 -19 -18 -18 -18 -17 -17 -16 -16 -16 -16 -17 -17 -17 -16 -16 -17 -17 -17 -17 -17 -17 -17 -18 -18 -19 -20
-17 -17 -17 -17 -17 -16 -17 -17 -17 -17 -17 -17 -17 -17 -18 -18 -18 -18 -18 -18 -17 -17 -17 -17 -17 -17 -17 -17 -17 -17 -17 -17 -17 -17 -17 -17 -17 -18 -18 -18 -19 -19 -20
-17 -17 -17 -17 -17 -17 -17 -17 -17 -17 -17 -17 -17 -17 -18 -18 -18 -18 -18 -18 -18 -18 -18 -17 -17 -17 -17 -17 -18 -18 -17 -17 -18 -18 -18 -17 -17 -18 -18 -19 -19 -20 -20
-17 -17 -17 -17 -17 -17 -17 -17 -18 -18 -18 -18 -18 -18 -18 -18 -18 -18 -18 -18 -18 -18 -18 -18 -18 -18 -18 -18 -18 -18 -18 -18 -18 -18 -18 -17 -18 -18 -18 -19 -19 -20 -20
-17 -17 -17 -17 -17 -17 -17 -17 -18 -18 -18 -18 -18 -18 -18 -18 -18 -18 -18 -18 -18 -18 -18 -18 -18 -18 -18 -18 -18 -18 -18 -18 -18 -18 -18 -18 -18 -18 -18 -19 -19 -19 -20
-17 -17 -17 -17 -17 -18 -18 -18 -18 -18 -18 -18 -19 -19 -19 -19 -19 -19 -19 -19 -19 -19 -19 -19 -19 -19 -19 -18 -18 -18 -18 -18 -18 -18 -18 -18 -18 -18 -18 -18 -18 -19 -19
-17 -17 -17 -18 -18 -18 -18 -18 -18 -18 -19 -19 -19 -19 -19 -19 -19 -19 -19 -19 -19 -19 -19 -19 -19 -19 -19 -18 -18 -18 -18 -19 -19 -19 -18 -18 -18 -18 -18 -18 -18 -18 -18
-17 -17 -17 -18 -18 -18 -18 -18 -19 -19 -19 -19 -19 -19 -19 -19 -19 -19 -19 -19 -19 -19 -19 -19 -19 -19 -18 -18 -18 -18 -18 -18 -18 -19 -19 -19 -19 -19 -19 -18 -18 -18 -18
-17 -17 -17 -17 -18 -18 -18 -19 -19 -19 -19 -19 -19 -19 -19 -19 -19 -19 -19 -19 -19 -19 -19 -19 -19 -19 -18 -18 -18 -18 -18 -19 -19 -19 -19 -19 -19 -19 -19 -18 -18 -18 -18
-16 -17 -17 -17 -18 -18 -18 -18 -19 -19 -19 -19 -19 -19 -19 -19 -19 -19 -19 -19 -19 -19 -19 -19 -19 -19 -19 -19 -18 -18 -19 -19 -19 -19 -19 -19 -19 -19 -19 -18 -18 -18 -18
-16 -17 -17 -17 -18 -18 -18 -18 -18 -19 -19 -19 -19 -19 -19 -19 -19 -19 -19 -19 -19 -19 -18 -18 -18 -18 -18 -18 -18 -18 -19 -19 -18 -19 -19 -19 -19 -19 -19 -19 -18 -18 -18
-16 -16 -17 -17 -17 -18 -18 -18 -18 -19 -19 -19 -19 -19 -19 -19 -19 -19 -18 -19 -19 -18 -18 -18 -18 -18 -18 -18 -18 -18 -18 -18 -18 -18 -18 -18 -18 -18 -18 -19 -18 -18 -18
-16 -17 -17 -17 -17 -17 -17 -18 -18 -19 -19 -19 -19 -19 -19 -19 -19 -18 -18 -19 -19 -18 -18 -18 -18 -18 -18 -18 -18 -18 -18 -18 -18 -18 -18 -18 -18 -18 -18 -18 -18 -18 -18
-16 -17 -17 -17 -17 -17 -18 -18 -18 -19 -19 -18 -18 -18 -18 -18 -18 -19 -18 -19 -19 -18 -18 -18 -18 -18 -18 -18 -18 -18 -18 -18 -18 -18 -18 -18 -18 -18 -18 -18 -18 -18 -18
-16 -16 -17 -17 -17 -17 -17 -17 -18 -18 -19 -19 -19 -18 -18 -18 -18 -18 -18 -19 -18 -18 -18 -18 -18 -18 -18 -18 -18 -18 -18 -18 -18 -18 -18 -18 -18 -18 -18 -18 -18 -18 -18
-16 -16 -16 -16 -17 -17 -17 -17 -17 -18 -18 -19 -19 -18 -18 -18 -18 -18 -18 -18 -18 -18 -18 -18 -18 -18 -18 -18 -18 -18 -18 -18 -18 -18 -18 -17 -17 -17 -18 -18 -18 -18 -18
-16 -16 -16 -16 -16 -16 -17 -17 -17 -17 -18 -18 -18 -19 -18 -18 -18 -18 -18 -18 -18 -18 -18 -18 -18 -18 -18 -18 -18 -17 -17 -17 -18 -18 -18 -18 -18 -18 -18 -17 -17 -17 -18
-16 -16 -16 -16 -16 -16 -16 -17 -17 -17 -18 -18 -18 -18 -18 -18 -18 -18 -18 -18 -18 -18 -18 -18 -18 -18 -18 -17 -17 -17 -17 -17 -17 -17 -17 -17 -17 -17 -17 -17 -17 -17 -17
-16 -16 -16 -16 -16 -16 -16 -16 -17 -17 -17 -17 -17 -18 -18 -18 -19 -19 -18 -19 -19 -18 -18 -18 -18 -18 -18 -18 -18 -17 -17 -17 -17 -17 -17 -17 -17 -17 -17 -17 -17 -17 -17
-16 -16 -16 -16 -16 -16 -16 -17 -17 -17 -17 -17 -17 -17 -18 -18 -18 -18 -18 -18 -18 -18 -18 -18 -18 -18 -18 -18 -18 -17 -17 -17 -17 -16 -16 -17 -17 -17 -17 -17 -18 -18 -18
Height
5715 5707 5699 5691 5684 5678 5671 5664 5657 5652 5648 5642 5640 5640 5640 5639 5640 5641 5642 5643 5644 5646 5646 5646 5646 5646 5646 5646 5646 5644 5643 5641 5640 5637 5635 5633 5630 5629 5625 5621 5617 5613 5610
5704 5696 5689 5682 5675 5668 5661 5654 5647 5641 5638 5634 5629 5626 5626 5626 5625 5627 5629 5630 5629 5632 5633 5634 5634 5634 5634 5634 5633 5631 5631 5630 5626 5623 5621 5619 5618 5615 5611 5606 5602 5598 5594
5695 5688 5682 5674 5667 5660 5653 5647 5640 5633 5628 5624 5621 5617 5614 5612 5612 5614 5612 5617 5618 5618 5621 5621 5622 5623 5623 5623 5622 5619 5618 5617 5614 5611 5607 5605 5602 5599 5594 5590 5586 5581 5577
5687 5680 5673 5667 5659 5651 5644 5638 5632 5625 5619 5615 5613 5609 5604 5602 5601 5602 5602 5599 5602 5608 5608 5610 5612 5612 5612 5612 5610 5608 5607 5605 5603 5600 5597 5593 5589 5585 5580 5574 5570 5566 5560
5680 5672 5665 5659 5652 5644 5637 5632 5626 5620 5615 5611 5607 5603 5598 5595 5592 5591 5592 5593 5594 5592 5600 5599 5600 5601 5599 5600 5598 5597 5596 5594 5591 5588 5585 5581 5577 5572 5567 5562 5556 5551 5546
5673 5666 5659 5653 5646 5639 5634 5628 5622 5617 5611 5605 5599 5593 5591 5589 5587 5585 5584 5586 5588 5592 5591 5592 5591 5590 5589 5588 5587 5586 5585 5581 5580 5577 5572 5569 5564 5560 5556 5551 5546 5540 5536
5668 5661 5654 5648 5642 5635 5630 5625 5619 5613 5607 5601 5595 5589 5585 5583 5582 5579 5579 5581 5582 5583 5584 5584 5582 5582 5581 5579 5579 5576 5574 5573 5570 5567 5563 5558 5557 5552 5549 5542 5537 5533 5528
5664 5657 5651 5646 5639 5633 5627 5622 5616 5610 5604 5599 5593 5588 5582 5578 5576 5575 5575 5575 5576 5577 5577 5576 5576 5575 5575 5573 5571 5569 5568 5565 5563 5559 5556 5552 5551 5547 5543 5539 5534 5529 5525
5661 5654 5648 5643 5637 5631 5625 5619 5613 5607 5601 5595 5590 5585 5581 5577 5575 5573 5572 5571 5572 5572 5572 5572 5572 5572 5570 5568 5567 5565 5562 5560 5558 5554 5551 5550 5548 5545 5541 5536 5533 5529 5526
5660 5654 5648 5641 5634 5628 5621 5615 5609 5603 5598 5593 5588 5584 5580 5577 5574 5572 5570 5570 5569 5569 5569 5569 5569 5568 5566 5565 5563 5561 5560 5557 5554 5553 5551 5549 5547 5545 5541 5538 5535 5531 5528
5660 5654 5647 5639 5632 5625 5619 5612 5607 5601 5596 5590 5586 5583 5579 5576 5574 5572 5571 5570 5570 5569 5568 5567 5566 5566 5565 5563 5561 5560 5558 5556 5554 5553 5552 5549 5547 5545 5544 5541 5538 5536 5534
5660 5654 5647 5639 5632 5624 5617 5611 5606 5601 5596 5592 5588 5585 5582 5579 5577 5575 5574 5572 5571 5570 5569 5569 5567 5565 5563 5562 5561 5560 5558 5556 5554 5553 5551 5550 5550 5547 5546 5544 5543 5541 5540
5661 5655 5647 5639 5631 5625 5619 5613 5608 5603 5598 5594 5590 5586 5582 5580 5579 5578 5577 5575 5574 5573 5572 5570 5568 5567 5566 5565 5564 5563 5561 5559 5556 5555 5554 5553 5552 5551 5550 5549 5548 5546 5545
5663 5655 5647 5640 5634 5629 5623 5617 5612 5606 5602 5597 5592 5589 5586 5584 5583 5582 5582 5581 5579 5577 5575 5573 5572 5570 5570 5569 5568 5567 5566 5564 5563 5561 5560 5559 5557 5557 5555 5554 5553 5552 5551
5665 5657 5650 5644 5639 5633 5627 5622 5616 5611 5607 5602 5598 5594 5592 5591 5590 5589 5588 5586 5584 5581 5579 5578 5577 5576 5575 5574 5573 5573 5572 5570 5569 5568 5567 5565 5564 5562 5560 5559 5558 5558 5558
5669 5661 5655 5649 5644 5637 5632 5626 5622 5617 5613 5608 5604 5602 5600 5600 5598 5597 5595 5593 5590 5587 5585 5583 5582 5581 5580 5579 5579 5578 5577 5576 5575 5574 5572 5570 5569 5567 5566 5566 5565 5565 5564
5673 5666 5660 5654 5648 5642 5637 5632 5628 5623 5618 5614 5612 5610 5609 5607 5606 5604 5602 5600 5597 5594 5592 5590 5589 5587 5586 5585 5584 5583 5582 5580 5579 5578 5576 5575 5574 5574 5573 5572 5571 5571 5570
5678 5672 5666 5660 5655 5649 5643 5638 5634 5629 5625 5622 5620 5619 5618 5616 5614 5612 5609 5607 5604 5602 5599 5597 5595 5594 5592 5591 5589 5588 5587 5585 5583 5582 5581 5580 5580 5579 5579 5578 5578 5577 5577
5684 5678 5673 5667 5661 5655 5650 5644 5640 5636 5633 5630 5629 5628 5627 5624 5621 5619 5616 5613 5611 5608 5605 5603 5601 5600 5598 5597 5595 5593 5592 5591 5589 5588 5587 5586 5586 5585 5584 5584 5584 5583 5583
5691 5686 5680 5674 5668 5662 5656 5651 5647 5643 5640 5638 5636 5635 5634 5631 5628 5626 5623 5620 5617 5614 5611 5609 5607 5606 5604 5602 5601 5599 5597 5596 5595 5594 5593 5592 5591 5590 5590 5589 5589 5589 5589
5698 5692 5686 5681 5676 5670 5664 5659 5654 5650 5647 5645 5643 5642 5640 5638 5635 5632 5629 5626 5623 5621 5618 5616 5613 5611 5609 5608 5606 5605 5603 5602 5600 5599 5598 5597 5596 5595 5594 5594 5594 5594 5593
5704 5698 5692 5687 5682 5677 5672 5667 5662 5657 5654 5651 5649 5647 5645 5643 5640 5638 5635 5632 5629 5627 5624 5622 5619 5617 5615 5613 5611 5609 5607 5606 5604 5603 5602 5600 5600 5599 5599 5598 5598 5597 5597
5709 5704 5698 5693 5688 5683 5678 5673 5668 5664 5660 5657 5654 5652 5650 5647 5645 5642 5640 5638 5635 5632 5630 5628 5625 5623 5620 5619 5617 5614 5612 5610 5607 5606 5605 5604 5603 5602 5602 5602 5601 5600 5600
5713 5708 5704 5698 5693 5688 5683 5678 5673 5669 5665 5662 5659 5656 5653 5651 5649 5646 5644 5642 5640 5638 5635 5633 5631 5628 5625 5623 5621 5619 5616 5614 5611 5609 5608 5606 5606 5605 5604 5604 5603 5602 5602
5715 5712 5707 5703 5698 5693 5688 5684 5679 5674 5670 5666 5662 5659 5656 5653 5651 5649 5647 5646 5644 5642 5639 5637 5635 5633 5630 5628 5625 5623 5621 5618 5616 5614 5611 5610 5608 5607 5606 5605 5604 5604 5604
5718 5714 5710 5706 5701 5697 5692 5689 5684 5680 5675 5671 5666 5661 5657 5654 5652 5650 5649 5648 5646 5645 5643 5641 5639 5636 5634 5632 5629 5627 5624 5622 5619 5617 5614 5612 5610 5609 5607 5606 5606 5605 5604
Wind_Speed
60 59 51 45 46 49 49 50 49 46 41 40 37 33 32 31 30 32 30 31 33 35 35 34 33 34 37 34 34 36 37 37 37 36 36 36 37 42 45 47 49 50 54
59 53 45 45 48 47 50 47 45 43 39 42 38 37 34 30 32 30 30 30 33 37 36 33 33 35 34 34 33 32 32 34 34 35 36 39 42 45 47 50 53 56 59
47 43 44 46 47 48 41 40 40 38 37 35 34 35 35 31 27 24 23 33 30 27 30 27 33 32 30 32 33 31 31 33 34 36 37 40 44 47 51 55 58 60 60
42 43 45 45 36 36 38 34 36 34 30 27 24 28 27 28 24 22 31 37 30 31 33 37 24 24 32 30 32 33 32 29 32 36 39 43 47 50 52 52 51 50 51
43 41 42 33 35 34 31 31 31 26 27 21 22 26 26 21 19 19 24 29 32 30 29 31 32 29 30 29 23 25 28 33 37 39 42 42 41 41 42 43 43 41 36
38 41 33 34 34 27 24 25 25 27 25 25 28 27 24 24 19 17 19 23 30 20 24 29 24 23 25 28 27 29 29 31 34 34 34 36 38 35 36 35 31 31 31
38 31 31 29 30 24 23 27 28 26 25 25 26 23 24 23 22 14 12 12 17 21 20 26 28 31 28 20 22 24 27 28 31 31 28 26 29 27 27 25 26 25 21
30 31 29 27 28 27 27 25 25 26 26 26 24 22 22 15 11 8 8 11 11 12 19 17 18 17 18 18 18 21 23 22 21 21 20 19 18 17 18 17 15 17 15
28 25 24 27 27 27 27 27 27 28 27 25 23 21 20 16 13 12 8 5 4 6 9 11 12 11 11 14 15 14 16 14 12 11 12 11 10 9 11 15 13 12 12
23 24 27 28 31 32 32 31 29 25 24 24 23 19 16 14 12 10 8 7 6 5 5 5 6 8 10 10 7 6 7 9 9 10 7 8 10 12 14 15 17 19 17
25 27 29 33 34 31 30 29 26 26 26 23 21 18 16 15 14 12 11 9 7 6 5 5 6 5 3 6 8 9 10 9 9 8 10 11 13 13 14 15 16 17 16
28 29 32 32 31 30 27 26 24 24 23 23 21 19 18 17 14 13 13 13 12 11 12 12 12 12 12 11 12 11 11 11 10 10 10 11 11 12 14 15 17 19 21
31 30 32 30 28 25 25 26 27 25 25 23 22 22 21 18 16 16 17 17 19 18 16 15 15 14 13 13 14 15 16 17 17 14 14 15 16 17 18 18 20 21 23
30 34 32 30 28 28 28 28 27 26 25 24 23 20 18 19 21 21 23 22 20 19 18 16 17 17 16 17 18 19 20 21 20 19 18 17 17 17 18 19 21 23 25
34 33 32 30 30 30 30 29 28 26 24 24 24 24 25 25 25 26 24 23 21 20 18 18 18 18 18 18 19 21 21 22 24 21 19 20 21 22 23 24 25 25 25
34 33 33 31 30 31 31 30 28 25 24 25 25 27 29 28 27 27 26 25 25 23 21 18 18 17 17 18 19 18 19 21 21 21 22 21 20 21 22 23 24 24 23
35 33 32 32 32 32 31 29 28 28 26 26 27 29 28 27 27 26 26 27 27 24 23 22 21 21 20 20 20 19 19 17 14 15 18 20 21 22 22 22 21 22 22
36 35 32 32 33 32 31 29 27 28 26 26 27 26 26 25 26 25 27 26 25 25 23 23 22 20 19 18 17 18 19 19 20 18 18 19 20 18 18 19 19 18 19
37 36 36 34 33 33 32 30 28 29 25 23 21 20 20 23 25 26 26 24 25 24 22 21 21 21 21 21 20 17 17 17 19 19 19 17 17 18 17 16 14 15 17
35 36 36 37 36 34 34 32 28 28 24 21 20 18 20 24 25 25 25 24 25 25 25 23 23 21 20 20 19 18 16 15 16 16 16 16 15 14 14 15 14 13 14
31 33 33 34 34 36 36 34 30 27 26 21 20 21 22 22 23 25 24 24 24 25 25 25 24 22 20 18 17 18 16 13 14 14 14 13 12 12 13 12 14 12 12
29 31 33 31 32 32 31 33 33 29 24 22 17 17 18 19 19 20 23 23 23 23 24 24 25 23 22 21 19 17 14 11 11 11 10 10 11 12 11 9 9 10 10
26 28 30 30 30 30 31 30 28 28 27 21 18 17 15 16 16 17 19 21 21 21 20 21 23 23 22 21 20 19 17 16 15 11 8 8 9 8 7 7 7 7 8
21 24 27 28 28 29 30 30 29 26 23 23 19 14 12 13 15 14 16 17 18 19 19 19 18 19 21 20 20 20 19 17 16 15 14 10 6 5 4 3 4 5 7
17 20 22 24 25 27 27 27 30 28 26 23 19 17 15 10 10 9 11 14 15 16 17 18 17 17 16 17 17 17 18 17 15 15 13 10 8 7 7 6 5 5 5
15 16 19 21 23 23 25 24 27 27 28 28 26 21 15 11 11 9 8 9 11 13 14 15 15 16 16 15 15 16 15 15 14 12 13 12 9 6 5 4 3 2 2
Wind_Direction
320 319 319 317 316 315 314 313 308 306 305 310 308 299 282 275 268 258 255 253 254 256 256 256 258 261 262 263 267 273 276 275 277 280 283 281 280 280 280 281 280 279 279
316 318 318 316 315 315 313 317 314 310 305 306 309 306 297 287 273 265 256 253 269 252 253 256 258 257 260 264 267 271 272 282 278 277 280 283 285 285 285 283 281 280 278
317 315 315 315 314 310 311 312 312 309 303 303 306 310 305 301 280 275 252 247 241 248 263 261 262 264 260 266 263 266 272 277 284 288 289 290 292 290 286 284 283 282 282
316 314 313 316 316 311 313 319 322 319 319 304 317 323 315 311 293 275 235 262 273 255 250 249 257 261 267 277 274 275 273 283 294 298 292 289 286 285 284 285 286 287 286
318 315 317 318 324 325 319 330 333 330 324 311 310 323 323 328 307 278 258 236 246 275 266 263 258 266 279 280 284 282 290 297 294 288 285 286 286 288 290 292 292 291 287
320 321 324 328 333 334 331 340 349 344 341 340 325 321 318 306 320 286 271 250 251 261 270 265 270 285 299 287 288 296 294 293 290 289 291 291 294 297 297 299 295 296 295
328 328 330 333 343 344 339 341 341 347 349 358 3 348 298 291 303 305 275 254 270 260 267 269 270 292 305 299 287 291 294 293 295 295 295 301 301 302 303 310 310 312 314
332 332 337 337 337 343 344 348 345 343 343 342 349 349 6 352 313 308 288 260 283 283 295 297 293 294 288 292 298 298 296 297 297 301 306 307 307 317 324 326 335 343 347
339 341 351 347 345 345 344 343 340 340 339 341 345 346 355 354 6 15 16 0 320 309 292 287 281 282 299 308 305 306 308 306 310 329 329 331 341 4 20 21 15 15 16
351 360 349 346 348 347 344 343 346 351 356 353 349 348 348 349 348 357 2 352 347 335 321 310 300 306 310 310 324 346 348 351 355 0 23 53 53 37 39 40 44 49 51
5 357 355 352 350 351 349 348 351 350 355 7 14 18 22 23 27 30 33 34 33 33 33 16 357 353 35 49 33 18 11 18 17 58 71 49 49 46 56 60 59 64 68
3 359 356 354 351 349 357 5 13 14 11 12 16 23 27 29 32 41 53 48 52 58 68 70 62 53 48 49 43 41 43 41 55 62 51 47 55 69 76 77 77 83 85
4 2 359 360 6 12 20 20 20 20 18 17 19 21 23 30 45 55 56 64 71 63 55 50 44 46 56 64 66 64 61 60 61 67 70 78 77 80 85 85 86 88 87
10 10 13 22 22 29 29 26 22 25 23 26 28 29 38 51 62 70 74 65 54 52 48 53 51 62 74 77 75 77 75 73 71 73 76 81 87 90 92 90 93 92 92
14 22 27 29 29 28 27 25 24 29 37 42 45 55 65 71 75 72 61 55 50 49 51 52 56 67 76 81 84 85 81 77 74 74 76 81 84 87 89 92 93 91 91
20 28 29 30 28 27 26 28 32 38 42 48 57 69 79 78 71 64 59 59 55 56 56 61 66 71 78 79 82 87 88 83 75 72 72 75 77 83 87 89 91 91 89
27 29 31 31 30 28 31 35 38 39 41 51 67 79 74 68 63 63 65 60 56 58 64 70 71 74 80 83 77 73 67 64 66 78 74 75 77 80 85 86 88 89 87
31 31 30 31 31 33 37 38 40 40 49 61 77 80 70 61 59 64 58 57 52 58 63 66 70 70 69 66 62 63 66 70 71 76 79 81 80 83 85 87 86 88 94
35 33 33 32 32 34 36 39 41 41 53 69 83 80 62 54 65 60 53 54 53 54 62 63 63 65 67 63 63 63 67 78 76 72 71 75 80 84 88 90 87 91 93
35 35 36 37 36 36 36 38 43 44 55 66 74 74 63 59 57 54 51 55 50 53 65 69 66 66 64 61 58 59 66 70 73 71 73 78 78 82 88 91 91 87 86
33 33 34 36 37 36 38 39 41 47 51 61 72 68 57 54 53 52 51 54 51 51 57 58 58 59 58 57 58 58 61 67 69 68 66 71 77 74 85 95 87 85 84
30 33 34 35 34 33 35 38 40 42 48 55 62 62 58 52 51 50 51 52 52 50 50 52 53 53 54 54 54 53 51 51 57 60 62 69 72 75 94 87 81 84 87
23 27 30 34 36 32 35 35 36 40 43 43 50 55 53 49 47 50 49 50 51 49 48 47 46 49 51 51 50 48 51 53 53 55 61 68 76 78 82 78 70 67 80
19 21 26 31 37 36 31 33 36 37 39 41 42 40 39 39 41 42 44 48 49 46 45 45 44 44 45 43 42 43 45 49 52 55 56 57 65 79 80 72 80 92 112
11 14 21 27 30 34 35 37 32 38 39 37 33 34 35 28 30 31 34 36 40 41 38 37 37 39 39 39 40 40 37 44 40 41 48 47 47 54 63 71 83 96 114
352 4 10 20 25 30 33 31 35 38 39 37 34 28 17 18 27 26 17 21 21 22 24 24 26 28 30 29 28 32 32 34 39 38 33 34 37 46 56 57 57 63 89